GW4435 Weather Reports


time (UTC)temp
C
wind
direction
speed
KPH
gust
KPH
rain 1hr
cm
rain 24hr
cm
rain mn
cm
humidity
%
barometer
mb
20260505071504 17 136 4.8 9.7 0.00 0.00 0.00 77 1006.8
20260505071004 17 143 4.8 9.7 0.00 0.00 0.00 77 1007.0
20260505070504 17 135 4.8 8.0 0.00 0.00 0.00 77 1007.0
20260505070004 17 139 4.8 9.7 0.00 0.00 0.00 77 1007.1
20260505065505 17 143 8.0 9.7 0.00 0.00 0.00 77 1007.2
20260505065004 17 145 6.4 9.7 0.00 0.00 0.00 77 1007.1
20260505064506 17 142 3.2 8.0 0.00 0.00 0.00 77 1007.2
20260505064005 17 139 3.2 9.7 0.00 0.00 0.00 77 1007.2
20260505063506 17 163 3.2 9.7 0.00 0.00 0.00 77 1007.2
20260505062004 17 157 4.8 11.3 0.00 0.00 0.00 76 1007.3
20260505061504 17 145 6.4 11.3 0.00 0.00 0.00 77 1007.2
20260505061004 17 151 4.8 12.9 0.00 0.00 0.00 77 1007.3
20260505060505 17 152 9.7 12.9 0.00 0.00 0.00 77 1007.2
20260505060005 17 149 9.7 12.9 0.00 0.00 0.00 76 1007.3
20260505055504 17 147 8.0 11.3 0.00 0.00 0.00 76 1007.6
20260505055005 17 145 4.8 11.3 0.00 0.00 0.00 76 1007.6
20260505054506 17 150 4.8 9.7 0.00 0.00 0.00 75 1007.9
20260505054004 17 146 3.2 9.7 0.00 0.00 0.00 75 1007.8
20260505053504 17 149 4.8 9.7 0.00 0.00 0.00 75 1007.8
20260505053005 17 144 8.0 11.3 0.00 0.00 0.00 75 1007.8
20260505051504 17 150 6.4 12.9 0.00 0.00 0.00 74 1007.9
20260505051005 17 152 8.0 11.3 0.00 0.00 0.00 74 1007.8
20260505050504 17 165 4.8 11.3 0.00 0.00 0.00 73 1007.9
20260505041504 18 155 4.8 8.0 0.00 0.00 0.00 71 1008.4
20260505040504 18 142 3.2 4.8 0.00 0.00 0.00 71 1008.5
20260505040006 18 148 3.2 8.0 0.00 0.00 0.00 70 1008.6
20260505035504 18 153 3.2 8.0 0.00 0.00 0.00 69 1008.6
20260505034504 18 198 3.2 12.9 0.00 0.00 0.00 71 1008.7
20260505033505 18 179 1.6 8.0 0.00 0.00 0.00 70 1008.8
20260505033005 18 178 3.2 8.0 0.00 0.00 0.00 69 1008.8
20260505032504 18 181 4.8 9.7 0.00 0.00 0.00 68 1008.8
20260505032005 18 173 3.2 8.0 0.00 0.00 0.00 69 1008.7
20260505031505 19 115 3.2 9.7 0.00 0.00 0.00 68 1008.7
20260505031004 19 193 3.2 11.3 0.00 0.00 0.00 68 1008.6
20260505030505 19 132 3.2 11.3 0.00 0.00 0.00 68 1008.6
20260505025506 19 196 4.8 14.5 0.00 0.00 0.00 66 1008.4
20260505025005 20 199 4.8 12.9 0.00 0.00 0.00 66 1008.3
20260505024508 20 193 3.2 9.7 0.00 0.00 0.00 65 1008.3
20260505024004 20 176 4.8 11.3 0.00 0.00 0.00 65 1008.2
20260505023504 20 180 4.8 12.9 0.00 0.00 0.00 64 1008.1
20260505023004 20 156 3.2 11.3 0.00 0.00 0.00 65 1007.9
20260505022505 20 214 4.8 20.9 0.00 0.00 0.00 65 1007.9
20260505022004 20 192 4.8 14.5 0.00 0.00 0.00 64 1007.9
20260505021506 20 198 3.2 14.5 0.00 0.00 0.00 64 1007.8
20260505021004 20 183 4.8 11.3 0.00 0.00 0.00 64 1007.7
20260505020504 20 147 3.2 8.0 0.00 0.00 0.00 65 1007.6
20260505020005 20 185 3.2 9.7 0.00 0.00 0.00 64 1007.6
20260505015504 20 192 1.6 4.8 0.00 0.00 0.00 64 1007.6
20260505015004 20 197 1.6 12.9 0.00 0.00 0.00 63 1007.5
20260505014504 20 165 3.2 12.9 0.00 0.00 0.00 62 1007.4
20260505014004 20 165 3.2 9.7 0.00 0.00 0.00 62 1007.3
20260505013504 21 197 4.8 12.9 0.00 0.00 0.00 62 1007.3
20260505013005 21 207 3.2 12.9 0.00 0.00 0.00 62 1007.3
20260505012504 21 190 3.2 11.3 0.00 0.00 0.00 62 1007.2
20260505012005 21 189 3.2 14.5 0.00 0.00 0.00 61 1007.0
20260505011504 21 184 3.2 9.7 0.00 0.00 0.00 60 1007.0
20260505011007 21 170 3.2 11.3 0.00 0.00 0.00 60 1006.8
20260505010504 21 156 4.8 11.3 0.00 0.00 0.00 58 1006.7
20260505010008 22 158 1.6 14.5 0.00 0.00 0.00 58 1006.7
20260505005004 22 183 4.8 11.3 0.00 0.00 0.00 57 1006.7
20260505004504 22 184 4.8 14.5 0.00 0.00 0.00 56 1006.7
20260505004005 22 188 9.7 19.3 0.00 0.00 0.00 56 1006.6
20260505003504 22 210 6.4 14.5 0.00 0.00 0.00 56 1006.6
20260505003005 23 188 11.3 20.9 0.00 0.00 0.00 55 1006.6
20260505001504 23 213 6.4 16.1 0.00 0.00 0.00 54 1006.5
20260505000504 23 182 8.0 22.5 0.00 0.00 0.00 53 1006.5
20260505000004 24 210 9.7 20.9 0.00 0.00 0.00 53 1006.4
20260504235504 24 210 14.5 24.1 0.00 0.00 0.00 51 1006.4
20260504235004 24 190 8.0 14.5 0.00 0.00 0.00 52 1006.4
20260504234504 25 192 11.3 22.5 0.00 0.00 0.00 51 1006.3
20260504233505 25 189 4.8 14.5 0.00 0.00 0.00 52 1006.3
20260504233005 25 203 4.8 16.1 0.00 0.00 0.00 51 1006.4
20260504232504 25 195 4.8 19.3 0.00 0.00 0.00 50 1006.5
20260504232004 25 200 12.9 20.9 0.00 0.00 0.00 50 1006.5
20260504231506 25 170 4.8 16.1 0.00 0.00 0.00 50 1006.5
20260504231004 25 194 11.3 24.1 0.00 0.00 0.00 49 1006.7
20260504230504 25 207 8.0 24.1 0.00 0.00 0.00 48 1006.8
20260504230005 25 213 11.3 20.9 0.00 0.00 0.00 48 1006.9
20260504225004 26 215 11.3 19.3 0.00 0.00 0.00 47 1006.8
20260504224504 26 219 11.3 19.3 0.00 0.00 0.00 47 1006.8
20260504223505 26 212 9.7 20.9 0.00 0.00 0.00 47 1006.9
20260504223004 26 215 12.9 25.7 0.00 0.00 0.00 46 1007.0
20260504222004 26 217 11.3 22.5 0.00 0.00 0.00 47 1007.0
20260504221504 26 233 9.7 19.3 0.00 0.00 0.00 47 1007.1
20260504221004 26 236 12.9 24.1 0.00 0.00 0.00 45 1007.0
20260504220505 26 232 11.3 20.9 0.00 0.00 0.00 45 1007.1
20260504220004 26 218 8.0 20.9 0.00 0.00 0.00 48 1007.0
20260504215504 26 219 11.3 20.9 0.00 0.00 0.00 48 1007.1
20260504214504 26 210 9.7 20.9 0.00 0.00 0.00 48 1007.1
20260504214005 26 217 12.9 20.9 0.00 0.00 0.00 47 1007.3
20260504213504 26 223 11.3 25.7 0.00 0.00 0.00 46 1007.4
20260504213006 26 209 11.3 22.5 0.00 0.00 0.00 46 1007.4
20260504212504 26 209 9.7 27.4 0.00 0.00 0.00 48 1007.3
20260504212006 26 205 11.3 27.4 0.00 0.00 0.00 48 1007.3
20260504211004 26 221 14.5 29.0 0.00 0.00 0.00 47 1007.4
20260504210506 26 203 11.3 27.4 0.00 0.00 0.00 50 1007.4
20260504210004 26 221 9.7 24.1 0.00 0.00 0.00 48 1007.5
20260504205504 26 212 9.7 24.1 0.00 0.00 0.00 48 1007.5
20260504205005 26 197 14.5 27.4 0.00 0.00 0.00 48 1007.6
20260504204506 26 205 9.7 20.9 0.00 0.00 0.00 49 1007.6
20260504204006 26 217 8.0 24.1 0.00 0.00 0.00 49 1007.6
20260504203504 25 194 11.3 25.7 0.00 0.00 0.00 48 1007.8
20260504202504 25 229 12.9 24.1 0.00 0.00 0.00 49 1007.8
20260504201504 26 205 11.3 29.0 0.00 0.00 0.00 48 1008.1
20260504200504 25 238 11.3 29.0 0.00 0.00 0.00 47 1008.2
20260504200004 26 210 16.1 29.0 0.00 0.00 0.00 48 1008.2
20260504195505 26 214 11.3 27.4 0.00 0.00 0.00 49 1008.1
20260504195004 26 213 12.9 27.4 0.00 0.00 0.00 48 1008.3
20260504194505 26 192 8.0 19.3 0.00 0.00 0.00 49 1008.2
20260504193506 25 212 19.3 29.0 0.00 0.00 0.00 48 1008.3
20260504193004 26 216 16.1 32.2 0.00 0.00 0.00 48 1008.4
20260504192504 26 210 12.9 33.8 0.00 0.00 0.00 47 1008.4
20260504192004 26 203 8.0 25.7 0.00 0.00 0.00 48 1008.4
20260504191504 26 190 11.3 22.5 0.00 0.00 0.00 47 1008.5
20260504191004 26 195 14.5 27.4 0.00 0.00 0.00 48 1008.4
20260504185504 25 205 12.9 22.5 0.00 0.00 0.00 47 1008.7
20260504185004 25 211 16.1 14.5 0.00 0.00 0.00 49 1008.7
20260504183504 25 211 16.1 24.1 0.00 0.00 0.00 49 1008.7
20260504183004 25 194 9.7 25.7 0.00 0.00 0.00 48 1008.8
20260504182004 25 206 11.3 25.7 0.00 0.00 0.00 48 1008.8
20260504181504 25 211 9.7 24.1 0.00 0.00 0.00 48 1008.9
20260504181004 25 216 8.0 22.5 0.00 0.00 0.00 49 1008.9
20260504180504 25 197 16.1 32.2 0.00 0.00 0.00 49 1008.9
20260504180005 25 188 11.3 25.7 0.00 0.00 0.00 48 1008.9
20260504175005 24 208 8.0 20.9 0.00 0.00 0.00 52 1008.9
20260504174504 24 216 16.1 29.0 0.00 0.00 0.00 50 1009.0
20260504174004 24 232 11.3 25.7 0.00 0.00 0.00 50 1009.0
20260504173505 24 213 12.9 25.7 0.00 0.00 0.00 50 1009.2
20260504173005 24 201 16.1 32.2 0.00 0.00 0.00 51 1009.2
20260504172505 24 205 17.7 29.0 0.00 0.00 0.00 50 1009.3
20260504172005 24 224 9.7 25.7 0.00 0.00 0.00 50 1009.4
20260504171504 24 166 9.7 24.1 0.00 0.00 0.00 52 1009.2
20260504151004 21 217 9.7 25.7 0.00 0.00 0.00 55 1010.5
20260504141006 18 211 8.0 16.1 0.00 0.00 0.00 67 1011.2
20260504140505 17 207 8.0 22.5 0.00 0.00 0.00 69 1011.3
20260504130504 15 190 4.8 14.5 0.00 0.00 0.00 75 1011.4
20260504110504 13 179 1.6 3.2 0.00 0.00 0.00 81 1011.0
20260504100504 13 183 3.2 4.8 0.00 0.00 0.00 80 1011.1
20260504082005 13 159 3.2 3.2 0.00 0.00 0.00 80 1011.4
20260504081504 13 151 1.6 3.2 0.00 0.00 0.00 80 1011.4
20260504081004 13 152 3.2 4.8 0.00 0.00 0.00 80 1011.4
20260504080504 13 154 1.6 4.8 0.00 0.00 0.00 79 1011.5